Station Historical Data
Daily Summary for December 19, 2017 Units:  English    Metric   Both
« Previous Day
Next Day »
Daily Weekly Monthly Yearly Custom
  High: Low: Average:
Temperature: TemperatureF °F 37.3 °F 41.7 °F
Dew Point: DewpointF °F 27.3 °F 36.9 °F
Humidity: Humidity% 67% 83%
Wind Speed: WindSpeedMPHmph 2.0mph 10.1mph
Wind Gust: WindSpeedGustMPHmph - -
Wind- - WSW
Pressure: PressureIn in 29.71 in -
Precipitation: 0.00 in    
Historical Graphs
 
 
Tabular Data for December 19, 2017
Time Temperature Dew Point Pressure Wind Wind Speed Wind Gust Humidity Rainfall Rate (Hourly)
TemperatureF °F DewpointF °F PressureIn in Calm     Humidity% HourlyPrecipIn in
00:04 40.8 °F 38.7 °F 29.84 in WSW 10.0 mph 19.0 mph 92% 0.02 in
00:09 40.8 °F 38.7 °F 29.84 in West 6.0 mph 12.0 mph 92% 0.02 in
00:14 40.8 °F 38.7 °F 29.84 in WSW 11.0 mph 15.0 mph 92% 0.01 in
00:19 41.0 °F 38.9 °F 29.84 in West 7.0 mph 17.0 mph 92% 0.01 in
00:24 41.1 °F 39.0 °F 29.83 in WSW 10.0 mph 17.0 mph 92% 0.00 in
00:29 41.1 °F 38.7 °F 29.83 in WSW 9.0 mph 17.0 mph 91% 0.00 in
00:34 41.2 °F 38.8 °F 29.82 in WSW 6.0 mph 15.0 mph 91% 0.00 in
00:39 41.2 °F 38.8 °F 29.82 in WSW 9.0 mph 16.0 mph 91% 0.00 in
00:44 41.3 °F 38.9 °F 29.82 in WSW 9.0 mph 16.0 mph 91% 0.00 in
00:49 41.3 °F 38.9 °F 29.82 in WSW 9.0 mph 16.0 mph 91% 0.00 in
00:54 41.2 °F 38.8 °F 29.83 in West 8.0 mph 18.0 mph 91% 0.00 in
00:59 41.4 °F 39.0 °F 29.83 in WSW 9.0 mph 19.0 mph 91% 0.00 in
01:04 41.4 °F 39.0 °F 29.83 in SSW 10.0 mph 17.0 mph 91% 0.00 in
01:09 41.3 °F 38.9 °F 29.83 in WSW 7.0 mph 16.0 mph 91% 0.00 in
01:14 41.3 °F 38.9 °F 29.83 in WSW 5.0 mph 20.0 mph 91% 0.00 in
01:19 41.3 °F 38.9 °F 29.83 in West 8.0 mph 17.0 mph 91% 0.00 in
01:24 41.3 °F 38.9 °F 29.83 in West 8.0 mph 17.0 mph 91% 0.00 in
01:29 41.3 °F 38.9 °F 29.83 in SW 9.0 mph 18.0 mph 91% 0.00 in
01:34 41.3 °F 38.6 °F 29.83 in West 11.0 mph 15.0 mph 90% 0.00 in
01:39 41.3 °F 38.6 °F 29.83 in WSW 8.0 mph 17.0 mph 90% 0.00 in
01:44 41.2 °F 38.5 °F 29.82 in WSW 8.0 mph 17.0 mph 90% 0.00 in
01:49 41.2 °F 38.5 °F 29.82 in WSW 7.0 mph 12.0 mph 90% 0.00 in
01:54 41.3 °F 38.6 °F 29.82 in WSW 7.0 mph 15.0 mph 90% 0.01 in
01:59 41.4 °F 38.7 °F 29.82 in West 6.0 mph 15.0 mph 90% 0.01 in
02:09 41.4 °F 38.7 °F 29.82 in West 7.0 mph 15.0 mph 90% 0.01 in
02:14 41.5 °F 39.1 °F 29.82 in WSW 10.0 mph 22.0 mph 91% 0.01 in
02:19 41.5 °F 38.8 °F 29.81 in WSW 10.0 mph 22.0 mph 90% 0.01 in
02:24 41.6 °F 38.9 °F 29.82 in WSW 10.0 mph 20.0 mph 90% 0.01 in
02:29 41.6 °F 38.9 °F 29.82 in WSW 11.0 mph 21.0 mph 90% 0.01 in
02:34 41.7 °F 39.0 °F 29.82 in WSW 10.0 mph 22.0 mph 90% 0.01 in
02:39 41.7 °F 39.0 °F 29.82 in WSW 9.0 mph 22.0 mph 90% 0.01 in
02:44 41.7 °F 38.7 °F 29.82 in WSW 10.0 mph 19.0 mph 89% 0.01 in
02:49 41.8 °F 38.8 °F 29.82 in West 7.0 mph 20.0 mph 89% 0.01 in
02:54 41.7 °F 39.0 °F 29.82 in West 7.0 mph 19.0 mph 90% 0.00 in
02:59 41.8 °F 38.8 °F 29.82 in West 10.0 mph 18.0 mph 89% 0.00 in
03:04 41.8 °F 38.8 °F 29.82 in West 6.0 mph 20.0 mph 89% 0.00 in
03:14 41.8 °F 38.8 °F 29.81 in SW 6.0 mph 26.0 mph 89% 0.00 in
03:19 41.9 °F 38.9 °F 29.82 in WSW 10.0 mph 26.0 mph 89% 0.00 in
03:29 41.9 °F 38.9 °F 29.82 in WSW 8.0 mph 17.0 mph 89% 0.00 in
03:34 41.9 °F 38.9 °F 29.81 in WSW 8.0 mph 16.0 mph 89% 0.00 in
03:39 41.9 °F 38.9 °F 29.81 in WSW 8.0 mph 17.0 mph 89% 0.00 in
03:44 41.7 °F 38.7 °F 29.82 in SSW 9.0 mph 13.0 mph 89% 0.00 in
03:49 41.7 °F 38.7 °F 29.81 in SW 5.0 mph 15.0 mph 89% 0.00 in
03:54 41.6 °F 38.6 °F 29.81 in WSW 8.0 mph 16.0 mph 89% 0.00 in
03:59 41.6 °F 38.6 °F 29.81 in WSW 8.0 mph 16.0 mph 89% 0.00 in
04:04 41.6 °F 38.9 °F 29.81 in WSW 8.0 mph 15.0 mph 90% 0.00 in
04:09 41.6 °F 38.9 °F 29.81 in WSW 8.0 mph 14.0 mph 90% 0.00 in
04:15 41.6 °F 38.9 °F 29.81 in WSW 8.0 mph 18.0 mph 90% 0.01 in
04:24 41.8 °F 39.1 °F 29.81 in WSW 9.0 mph 20.0 mph 90% 0.01 in
04:29 41.8 °F 39.1 °F 29.80 in SW 13.0 mph 18.0 mph 90% 0.01 in
04:39 42.0 °F 39.0 °F 29.80 in SW 9.0 mph 25.0 mph 89% 0.01 in
04:44 42.0 °F 39.0 °F 29.80 in SW 9.0 mph 20.0 mph 89% 0.01 in
04:49 42.0 °F 39.0 °F 29.80 in WSW 14.0 mph 18.0 mph 89% 0.01 in
04:59 42.2 °F 39.2 °F 29.80 in WSW 13.0 mph 26.0 mph 89% 0.01 in
05:04 42.1 °F 39.1 °F 29.79 in WSW 12.0 mph 26.0 mph 89% 0.01 in
05:09 42.1 °F 38.8 °F 29.79 in WSW 11.0 mph 21.0 mph 88% 0.01 in
05:14 42.1 °F 38.8 °F 29.79 in WSW 15.0 mph 19.0 mph 88% 0.00 in
05:19 42.2 °F 38.9 °F 29.79 in WSW 7.0 mph 20.0 mph 88% 0.00 in
05:24 42.2 °F 38.9 °F 29.79 in SW 6.0 mph 21.0 mph 88% 0.00 in
05:29 42.2 °F 38.6 °F 29.79 in SW 15.0 mph 26.0 mph 87% 0.00 in
05:34 42.3 °F 38.7 °F 29.80 in WSW 11.0 mph 26.0 mph 87% 0.00 in
05:39 42.3 °F 38.7 °F 29.80 in SW 10.0 mph 20.0 mph 87% 0.00 in
05:44 42.3 °F 38.4 °F 29.79 in WSW 11.0 mph 19.0 mph 86% 0.00 in
05:49 42.4 °F 38.5 °F 29.79 in SW 11.0 mph 20.0 mph 86% 0.00 in
05:54 42.4 °F 38.5 °F 29.79 in SW 11.0 mph 20.0 mph 86% 0.00 in
05:59 42.4 °F 38.5 °F 29.78 in SW 10.0 mph 17.0 mph 86% 0.00 in
06:04 42.4 °F 38.2 °F 29.78 in SSW 7.0 mph 21.0 mph 85% 0.00 in
06:09 42.4 °F 38.2 °F 29.78 in SW 12.0 mph 24.0 mph 85% 0.00 in
06:14 42.5 °F 38.3 °F 29.78 in SW 12.0 mph 24.0 mph 85% 0.00 in
06:19 42.5 °F 38.3 °F 29.78 in South 15.0 mph 19.0 mph 85% 0.00 in
06:24 42.5 °F 38.3 °F 29.78 in SW 10.0 mph 24.0 mph 85% 0.00 in
06:29 42.5 °F 38.3 °F 29.79 in SW 12.0 mph 18.0 mph 85% 0.00 in
06:34 42.6 °F 38.4 °F 29.78 in WSW 15.0 mph 23.0 mph 85% 0.00 in
06:39 42.6 °F 38.4 °F 29.78 in WSW 11.0 mph 23.0 mph 85% 0.00 in
06:44 42.6 °F 38.4 °F 29.78 in SW 11.0 mph 27.0 mph 85% 0.00 in
06:49 42.6 °F 38.4 °F 29.78 in SW 11.0 mph 27.0 mph 85% 0.00 in
06:54 42.7 °F 38.5 °F 29.78 in WSW 9.0 mph 27.0 mph 85% 0.00 in
06:59 42.8 °F 38.6 °F 29.78 in SW 14.0 mph 23.0 mph 85% 0.00 in
07:04 42.8 °F 38.3 °F 29.78 in WSW 10.0 mph 17.0 mph 84% 0.00 in
07:09 42.7 °F 38.2 °F 29.78 in WSW 13.0 mph 22.0 mph 84% 0.00 in
07:14 42.7 °F 38.2 °F 29.77 in WSW 12.0 mph 22.0 mph 84% 0.00 in
07:19 42.7 °F 38.2 °F 29.78 in SW 12.0 mph 21.0 mph 84% 0.00 in
07:24 42.8 °F 38.3 °F 29.78 in SW 13.0 mph 26.0 mph 84% 0.00 in
07:29 42.7 °F 38.2 °F 29.78 in WSW 13.0 mph 26.0 mph 84% 0.00 in
07:34 42.8 °F 38.3 °F 29.78 in WSW 13.0 mph 25.0 mph 84% 0.00 in
07:44 42.7 °F 38.2 °F 29.77 in SW 8.0 mph 22.0 mph 84% 0.00 in
07:54 42.7 °F 38.2 °F 29.77 in WSW 14.0 mph 27.0 mph 84% 0.00 in
07:59 42.7 °F 38.2 °F 29.77 in SW 13.0 mph 26.0 mph 84% 0.00 in
08:04 42.7 °F 38.2 °F 29.77 in SW 13.0 mph 25.0 mph 84% 0.00 in
08:14 42.7 °F 38.2 °F 29.77 in SW 11.0 mph 20.0 mph 84% 0.00 in
08:19 42.8 °F 38.3 °F 29.78 in SW 14.0 mph 24.0 mph 84% 0.00 in
08:24 42.8 °F 38.3 °F 29.79 in WSW 13.0 mph 25.0 mph 84% 0.00 in
08:29 42.8 °F 38.3 °F 29.79 in WSW 11.0 mph 25.0 mph 84% 0.00 in
08:34 42.9 °F 38.1 °F 29.79 in WSW 10.0 mph 21.0 mph 83% 0.00 in
08:39 43.0 °F 38.2 °F 29.79 in WSW 11.0 mph 20.0 mph 83% 0.00 in
08:44 43.0 °F 38.2 °F 29.79 in SSW 8.0 mph 20.0 mph 83% 0.00 in
08:49 43.0 °F 38.2 °F 29.79 in WSW 12.0 mph 23.0 mph 83% 0.00 in
08:54 43.0 °F 38.2 °F 29.79 in WSW 11.0 mph 23.0 mph 83% 0.00 in
08:59 42.9 °F 38.1 °F 29.79 in WNW 11.0 mph 22.0 mph 83% 0.00 in
09:04 43.0 °F 38.2 °F 29.80 in West 12.0 mph 24.0 mph 83% 0.00 in
09:09 43.0 °F 38.2 °F 29.79 in WSW 11.0 mph 24.0 mph 83% 0.00 in
09:14 43.0 °F 38.2 °F 29.79 in WSW 13.0 mph 25.0 mph 83% 0.00 in
09:19 43.0 °F 37.9 °F 29.79 in SW 8.0 mph 26.0 mph 82% 0.00 in
09:24 43.0 °F 37.9 °F 29.79 in WSW 11.0 mph 26.0 mph 82% 0.00 in
09:29 43.0 °F 37.9 °F 29.79 in WSW 11.0 mph 24.0 mph 82% 0.00 in
09:34 43.1 °F 38.0 °F 29.79 in WSW 11.0 mph 20.0 mph 82% 0.00 in
09:39 43.1 °F 38.0 °F 29.78 in WSW 13.0 mph 24.0 mph 82% 0.00 in
09:44 43.2 °F 38.1 °F 29.78 in SSW 9.0 mph 26.0 mph 82% 0.00 in
09:49 43.1 °F 38.0 °F 29.79 in WSW 12.0 mph 26.0 mph 82% 0.00 in
09:54 43.2 °F 38.1 °F 29.78 in WSW 11.0 mph 24.0 mph 82% 0.00 in
09:59 43.2 °F 38.1 °F 29.78 in WSW 11.0 mph 24.0 mph 82% 0.00 in
10:04 43.2 °F 38.1 °F 29.78 in WNW 7.0 mph 24.0 mph 82% 0.00 in
10:09 43.2 °F 38.1 °F 29.78 in SW 9.0 mph 18.0 mph 82% 0.00 in
10:14 43.2 °F 38.1 °F 29.77 in West 11.0 mph 20.0 mph 82% 0.00 in
10:19 43.2 °F 38.1 °F 29.78 in SW 10.0 mph 21.0 mph 82% 0.00 in
10:24 43.2 °F 38.1 °F 29.77 in SW 11.0 mph 28.0 mph 82% 0.00 in
10:34 43.2 °F 37.8 °F 29.77 in SW 11.0 mph 26.0 mph 81% 0.00 in
10:39 43.3 °F 37.9 °F 29.77 in WSW 12.0 mph 26.0 mph 81% 0.00 in
10:44 43.2 °F 37.8 °F 29.77 in SW 13.0 mph 30.0 mph 81% 0.00 in
10:49 43.3 °F 37.9 °F 29.77 in SW 14.0 mph 30.0 mph 81% 0.00 in
10:54 43.3 °F 37.9 °F 29.77 in SW 13.0 mph 27.0 mph 81% 0.00 in
10:55 43.3 °F 37.9 °F 29.77 in WSW 14.0 mph 27.0 mph 81% 0.00 in
11:04 43.3 °F 37.9 °F 29.77 in SSW 12.0 mph 23.0 mph 81% 0.00 in
11:09 43.3 °F 37.9 °F 29.76 in WSW 10.0 mph 19.0 mph 81% 0.00 in
11:14 43.3 °F 37.9 °F 29.76 in SW 11.0 mph 23.0 mph 81% 0.00 in
11:19 43.3 °F 37.9 °F 29.76 in SW 11.0 mph 23.0 mph 81% 0.00 in
11:20 43.3 °F 37.9 °F 29.76 in SW 16.0 mph 21.0 mph 81% 0.00 in
11:24 43.3 °F 37.9 °F 29.76 in SW 11.0 mph 21.0 mph 81% 0.00 in
11:29 43.3 °F 37.9 °F 29.76 in SW 11.0 mph 21.0 mph 81% 0.00 in
11:34 43.3 °F 37.9 °F 29.75 in SW 12.0 mph 21.0 mph 81% 0.00 in
11:39 43.3 °F 37.9 °F 29.75 in West 11.0 mph 19.0 mph 81% 0.00 in
11:44 43.3 °F 37.9 °F 29.75 in SSW 15.0 mph 22.0 mph 81% 0.00 in
11:49 43.3 °F 37.9 °F 29.74 in SW 10.0 mph 17.0 mph 81% 0.00 in
11:54 43.4 °F 38.0 °F 29.74 in SW 9.0 mph 21.0 mph 81% 0.00 in
11:59 43.4 °F 38.0 °F 29.74 in WSW 14.0 mph 27.0 mph 81% 0.00 in
12:04 43.5 °F 38.1 °F 29.74 in SW 18.0 mph 22.0 mph 81% 0.00 in
12:09 43.5 °F 38.1 °F 29.73 in WSW 14.0 mph 25.0 mph 81% 0.00 in
12:14 43.7 °F 38.3 °F 29.73 in South 14.0 mph 29.0 mph 81% 0.00 in
12:19 43.8 °F 38.3 °F 29.73 in SW 13.0 mph 29.0 mph 81% 0.00 in
12:24 43.8 °F 38.3 °F 29.73 in SW 13.0 mph 28.0 mph 81% 0.00 in
12:29 43.8 °F 38.3 °F 29.73 in WSW 13.0 mph 28.0 mph 81% 0.00 in
12:34 43.8 °F 38.3 °F 29.72 in West 12.0 mph 25.0 mph 81% 0.00 in
12:39 43.8 °F 38.3 °F 29.73 in WSW 21.0 mph 25.0 mph 81% 0.00 in
12:44 44.0 °F 38.9 °F 29.72 in SW 11.0 mph 33.0 mph 82% 0.00 in
12:49 44.3 °F 38.8 °F 29.72 in SW 10.0 mph 24.0 mph 81% 0.00 in
12:54 44.4 °F 38.6 °F 29.72 in WSW 17.0 mph 27.0 mph 80% 0.00 in
12:59 44.3 °F 38.5 °F 29.73 in WSW 16.0 mph 34.0 mph 80% 0.00 in
13:04 44.1 °F 38.3 °F 29.72 in WSW 14.0 mph 28.0 mph 80% 0.00 in
13:09 44.1 °F 38.3 °F 29.72 in WSW 15.0 mph 28.0 mph 80% 0.00 in
13:14 44.1 °F 38.3 °F 29.72 in WSW 14.0 mph 29.0 mph 80% 0.00 in
13:19 44.1 °F 38.6 °F 29.73 in WSW 12.0 mph 29.0 mph 81% 0.00 in
13:20 44.1 °F 38.6 °F 29.73 in WSW 15.0 mph 29.0 mph 81% 0.00 in
13:29 44.0 °F 38.2 °F 29.73 in WSW 20.0 mph 31.0 mph 80% 0.00 in
13:34 44.1 °F 38.3 °F 29.72 in WSW 15.0 mph 31.0 mph 80% 0.00 in
13:39 44.3 °F 38.5 °F 29.72 in SW 8.0 mph 27.0 mph 80% 0.00 in
13:44 44.2 °F 38.4 °F 29.72 in WNW 14.0 mph 25.0 mph 80% 0.00 in
13:49 44.0 °F 38.2 °F 29.72 in SW 10.0 mph 24.0 mph 80% 0.00 in
13:54 43.9 °F 38.1 °F 29.72 in WSW 15.0 mph 27.0 mph 80% 0.00 in
13:59 43.8 °F 38.0 °F 29.72 in West 13.0 mph 28.0 mph 80% 0.00 in
14:09 43.8 °F 38.0 °F 29.72 in WSW 13.0 mph 22.0 mph 80% 0.00 in
14:14 43.7 °F 37.9 °F 29.71 in WSW 14.0 mph 29.0 mph 80% 0.00 in
14:19 43.5 °F 37.7 °F 29.71 in WSW 15.0 mph 29.0 mph 80% 0.00 in
14:24 43.4 °F 38.0 °F 29.72 in SW 14.0 mph 25.0 mph 81% 0.00 in
14:29 43.2 °F 37.8 °F 29.72 in WSW 10.0 mph 29.0 mph 81% 0.00 in
14:34 43.0 °F 37.6 °F 29.72 in SW 8.0 mph 22.0 mph 81% 0.00 in
14:39 42.8 °F 37.4 °F 29.72 in WSW 8.0 mph 28.0 mph 81% 0.00 in
14:44 42.6 °F 37.5 °F 29.72 in WSW 13.0 mph 28.0 mph 82% 0.00 in
14:49 42.4 °F 37.3 °F 29.72 in WSW 13.0 mph 25.0 mph 82% 0.00 in
14:54 42.3 °F 37.5 °F 29.72 in WSW 13.0 mph 25.0 mph 83% 0.00 in
14:59 42.1 °F 37.3 °F 29.73 in WSW 13.0 mph 25.0 mph 83% 0.00 in
15:04 42.0 °F 37.2 °F 29.72 in WSW 13.0 mph 23.0 mph 83% 0.00 in
15:09 41.8 °F 37.3 °F 29.73 in West 9.0 mph 23.0 mph 84% 0.00 in
15:19 41.6 °F 37.1 °F 29.73 in West 7.0 mph 21.0 mph 84% 0.00 in
15:24 41.4 °F 37.2 °F 29.73 in SSW 21.0 mph 21.0 mph 85% 0.00 in
15:29 41.4 °F 37.2 °F 29.73 in WSW 5.0 mph 24.0 mph 85% 0.00 in
15:34 41.3 °F 37.1 °F 29.73 in West 16.0 mph 22.0 mph 85% 0.00 in
15:39 41.2 °F 37.3 °F 29.73 in WSW 16.0 mph 23.0 mph 86% 0.00 in
15:44 41.2 °F 37.3 °F 29.73 in WSW 11.0 mph 23.0 mph 86% 0.00 in
15:49 41.1 °F 37.2 °F 29.73 in WSW 11.0 mph 21.0 mph 86% 0.00 in
15:54 41.2 °F 37.3 °F 29.73 in WSW 13.0 mph 20.0 mph 86% 0.00 in
15:59 41.1 °F 37.2 °F 29.73 in WSW 10.0 mph 20.0 mph 86% 0.00 in
16:04 41.2 °F 37.3 °F 29.74 in SW 10.0 mph 22.0 mph 86% 0.00 in
16:09 41.2 °F 37.3 °F 29.74 in WSW 15.0 mph 24.0 mph 86% 0.00 in
16:14 41.2 °F 37.3 °F 29.74 in WSW 16.0 mph 21.0 mph 86% 0.00 in
16:19 41.3 °F 37.4 °F 29.74 in WSW 11.0 mph 21.0 mph 86% 0.00 in
16:24 41.3 °F 37.4 °F 29.74 in WSW 10.0 mph 21.0 mph 86% 0.00 in
16:29 41.4 °F 37.5 °F 29.74 in WSW 10.0 mph 21.0 mph 86% 0.00 in
16:34 41.4 °F 37.5 °F 29.75 in WSW 8.0 mph 17.0 mph 86% 0.00 in
16:35 41.4 °F 37.5 °F 29.75 in WSW 10.0 mph 16.0 mph 86% 0.00 in
16:44 41.6 °F 37.4 °F 29.75 in WSW 10.0 mph 23.0 mph 85% 0.00 in
16:49 41.6 °F 37.4 °F 29.75 in WSW 7.0 mph 23.0 mph 85% 0.00 in
16:54 41.7 °F 37.5 °F 29.75 in WNW 4.0 mph 20.0 mph 85% 0.00 in
16:59 41.8 °F 37.3 °F 29.75 in West 6.0 mph 19.0 mph 84% 0.00 in
17:04 41.9 °F 37.4 °F 29.75 in WNW 11.0 mph 19.0 mph 84% 0.00 in
17:09 42.0 °F 37.2 °F 29.76 in WSW 8.0 mph 14.0 mph 83% 0.00 in
17:14 42.0 °F 37.2 °F 29.76 in SW 9.0 mph 15.0 mph 83% 0.00 in
17:19 42.0 °F 36.9 °F 29.76 in WSW 8.0 mph 16.0 mph 82% 0.00 in
17:24 42.0 °F 36.9 °F 29.77 in West 8.0 mph 18.0 mph 82% 0.00 in
17:29 42.0 °F 36.9 °F 29.77 in West 9.0 mph 19.0 mph 82% 0.00 in
17:34 42.2 °F 37.1 °F 29.77 in West 9.0 mph 28.0 mph 82% 0.00 in
17:39 42.1 °F 36.7 °F 29.77 in West 10.0 mph 28.0 mph 81% 0.00 in
17:44 42.2 °F 36.8 °F 29.77 in West 9.0 mph 20.0 mph 81% 0.00 in
17:49 42.2 °F 36.8 °F 29.77 in West 8.0 mph 18.0 mph 81% 0.00 in
17:54 42.2 °F 36.8 °F 29.77 in West 8.0 mph 18.0 mph 81% 0.00 in
17:59 42.2 °F 36.8 °F 29.78 in West 7.0 mph 18.0 mph 81% 0.00 in
18:04 42.2 °F 36.8 °F 29.78 in WNW 16.0 mph 22.0 mph 81% 0.00 in
18:09 42.2 °F 36.8 °F 29.78 in WNW 8.0 mph 19.0 mph 81% 0.00 in
18:14 42.3 °F 36.9 °F 29.77 in West 9.0 mph 19.0 mph 81% 0.00 in
18:19 42.2 °F 36.8 °F 29.77 in West 15.0 mph 22.0 mph 81% 0.00 in
18:24 42.2 °F 36.8 °F 29.77 in WNW 12.0 mph 19.0 mph 81% 0.00 in
18:29 42.2 °F 36.8 °F 29.77 in SW 4.0 mph 16.0 mph 81% 0.00 in
18:34 42.2 °F 37.1 °F 29.77 in WSW 8.0 mph 16.0 mph 82% 0.00 in
18:39 42.1 °F 37.0 °F 29.77 in WSW 8.0 mph 16.0 mph 82% 0.00 in
18:44 42.0 °F 36.9 °F 29.77 in WSW 8.0 mph 16.0 mph 82% 0.00 in
18:49 41.9 °F 36.8 °F 29.77 in WSW 10.0 mph 13.0 mph 82% 0.00 in
18:54 41.8 °F 37.0 °F 29.77 in WSW 4.0 mph 16.0 mph 83% 0.00 in
18:59 41.7 °F 36.9 °F 29.77 in NW 2.0 mph 13.0 mph 83% 0.00 in
19:04 41.6 °F 36.8 °F 29.77 in WSW 8.0 mph 28.0 mph 83% 0.00 in
19:09 41.6 °F 37.1 °F 29.77 in WSW 8.0 mph 28.0 mph 84% 0.00 in
19:14 41.6 °F 37.1 °F 29.77 in WSW 8.0 mph 15.0 mph 84% 0.00 in
19:19 41.6 °F 37.1 °F 29.76 in WSW 8.0 mph 15.0 mph 84% 0.00 in
19:24 41.5 °F 37.0 °F 29.77 in WSW 7.0 mph 14.0 mph 84% 0.00 in
19:29 41.5 °F 37.0 °F 29.77 in WSW 8.0 mph 20.0 mph 84% 0.00 in
19:34 41.5 °F 37.0 °F 29.77 in WSW 6.0 mph 19.0 mph 84% 0.00 in
19:39 41.6 °F 37.1 °F 29.77 in WSW 12.0 mph 19.0 mph 84% 0.00 in
19:49 41.5 °F 36.7 °F 29.77 in West 8.0 mph 16.0 mph 83% 0.00 in
19:59 41.4 °F 36.6 °F 29.77 in WSW 8.0 mph 18.0 mph 83% 0.00 in
20:04 41.3 °F 36.5 °F 29.77 in West 6.0 mph 18.0 mph 83% 0.00 in
20:09 41.3 °F 36.5 °F 29.77 in West 10.0 mph 20.0 mph 83% 0.00 in
20:14 41.3 °F 36.5 °F 29.77 in West 3.0 mph 18.0 mph 83% 0.00 in
20:19 41.3 °F 36.5 °F 29.77 in West 9.0 mph 18.0 mph 83% 0.00 in
20:24 41.2 °F 36.4 °F 29.77 in West 9.0 mph 16.0 mph 83% 0.00 in
20:29 41.2 °F 36.4 °F 29.77 in WSW 9.0 mph 15.0 mph 83% 0.00 in
20:34 41.1 °F 36.3 °F 29.77 in West 9.0 mph 17.0 mph 83% 0.00 in
20:39 41.1 °F 36.3 °F 29.77 in West 8.0 mph 18.0 mph 83% 0.00 in
20:44 41.0 °F 36.2 °F 29.78 in WSW 7.0 mph 22.0 mph 83% 0.00 in
20:49 40.9 °F 35.8 °F 29.78 in WSW 9.0 mph 22.0 mph 82% 0.00 in
20:54 40.7 °F 35.3 °F 29.78 in WSW 8.0 mph 16.0 mph 81% 0.00 in
20:59 40.6 °F 35.2 °F 29.78 in West 7.0 mph 16.0 mph 81% 0.00 in
21:04 40.6 °F 35.2 °F 29.78 in WSW 7.0 mph 12.0 mph 81% 0.00 in
21:09 40.6 °F 34.9 °F 29.78 in WSW 7.0 mph 15.0 mph 80% 0.00 in
21:14 40.4 °F 34.4 °F 29.78 in WSW 8.0 mph 18.0 mph 79% 0.00 in
21:19 40.3 °F 34.3 °F 29.78 in WSW 6.0 mph 13.0 mph 79% 0.00 in
21:24 40.2 °F 33.9 °F 29.78 in West 7.0 mph 14.0 mph 78% 0.00 in
21:29 40.0 °F 33.4 °F 29.78 in WSW 7.0 mph 14.0 mph 77% 0.00 in
21:34 39.9 °F 33.3 °F 29.79 in WSW 7.0 mph 14.0 mph 77% 0.00 in
21:39 39.8 °F 32.8 °F 29.79 in WSW 7.0 mph 14.0 mph 76% 0.00 in
21:44 39.7 °F 32.4 °F 29.78 in West 6.0 mph 18.0 mph 75% 0.00 in
21:54 39.5 °F 31.9 °F 29.79 in West 7.0 mph 13.0 mph 74% 0.00 in
21:59 39.3 °F 31.4 °F 29.79 in WSW 10.0 mph 15.0 mph 73% 0.00 in
22:09 39.1 °F 30.8 °F 29.79 in West 8.0 mph 19.0 mph 72% 0.00 in
22:19 38.9 °F 30.3 °F 29.80 in West 11.0 mph 16.0 mph 71% 0.00 in
22:24 38.8 °F 30.2 °F 29.80 in West 8.0 mph 16.0 mph 71% 0.00 in
22:29 38.7 °F 30.1 °F 29.80 in West 6.0 mph 16.0 mph 71% 0.00 in
22:34 38.6 °F 30.0 °F 29.80 in West 7.0 mph 16.0 mph 71% 0.00 in
22:39 38.6 °F 30.0 °F 29.80 in West 7.0 mph 16.0 mph 71% 0.00 in
22:44 38.5 °F 29.9 °F 29.81 in WSW 7.0 mph 13.0 mph 71% 0.00 in
22:49 38.4 °F 29.5 °F 29.81 in West 13.0 mph 18.0 mph 70% 0.00 in
22:54 38.3 °F 29.0 °F 29.81 in West 10.0 mph 17.0 mph 69% 0.00 in
22:59 38.3 °F 29.0 °F 29.81 in WSW 6.0 mph 13.0 mph 69% 0.00 in
23:00 38.3 °F 29.0 °F 29.81 in West 8.0 mph 17.0 mph 69% 0.00 in
23:14 38.0 °F 28.7 °F 29.81 in WSW 7.0 mph 18.0 mph 69% 0.00 in
23:19 37.9 °F 28.3 °F 29.81 in WSW 7.0 mph 18.0 mph 68% 0.00 in
23:24 37.9 °F 28.3 °F 29.82 in West 7.0 mph 16.0 mph 68% 0.00 in
23:29 37.8 °F 28.2 °F 29.82 in WSW 8.0 mph 17.0 mph 68% 0.00 in
23:34 37.7 °F 28.1 °F 29.82 in WSW 7.0 mph 17.0 mph 68% 0.00 in
23:39 37.6 °F 28.0 °F 29.82 in WSW 8.0 mph 15.0 mph 68% 0.00 in
23:44 37.5 °F 27.9 °F 29.82 in West 8.0 mph 17.0 mph 68% 0.00 in
23:49 37.5 °F 27.9 °F 29.82 in WSW 6.0 mph 19.0 mph 68% 0.00 in
23:54 37.4 °F 27.4 °F 29.83 in West 8.0 mph 19.0 mph 67% 0.00 in
23:59 37.3 °F 27.3 °F 29.83 in WSW 4.0 mph 15.0 mph 67% 0.00 in
Buffalo, New York, USA
Compliments of Weather Underground - 2.25 mb